Weather History for Omaha Offutt, NE

Change the Weather History Date:

Saturday, November 26, 2011

  Actual Average Record
Temperature  
Mean Temperature 43 °F -  
Max Temperature 48 °F 44 °F 64 °F (1998)
Min Temperature 37 °F 26 °F 8 °F (1996)
Degree Days  
Heating Degree Days 22    
Moisture  
Dew Point 35 °F    
Average Humidity 77    
Maximum Humidity 100    
Minimum Humidity 55    
Precipitation  
Precipitation 0.02 in - - ()
Sea Level Pressure  
Sea Level Pressure 30.02 in    
Wind  
Wind Speed 15 mph (NW)    
Max Wind Speed 29 mph    
Max Gust Speed 40 mph    
Visibility 10 miles    
Events      
Averages and records for this station are not official NWS values.
T = Trace of Precipitation, MM = Missing Value Source: NWS Daily Summary

Daily Weather History Graph

Daily Weather History Graph

Search for Another Location

Airport:

Trip Planner

Search our weather history database for the weather conditions in past years. The results will help you decide how hot, cold, wet, or windy it might be!

Date:

Astronomy

Nov. 26, 2011 Rise Set
Actual Time 7:23 AM CST 4:57 PM CST
Civil Twilight 6:53 AM CST 5:27 PM CST
Nautical Twilight 6:19 AM CST 6:01 PM CST
Astronomical Twilight 5:46 AM CST 6:34 PM CST
Moon 8:56 AM CST (11/26) 6:29 PM CST (11/26)
Length of Visible Light 10h 34m
Length of Day
9h 33m
Waxing Crescent, 3% of the Moon is Illuminated
Nov 26
Waxing Crescent
Dec 2
First Quarter
Dec 10
Full
Dec 17
Last Quarter
Dec 24
New

Hourly Weather History & Observations

Time (CST) Temp. Windchill Dew Point Humidity Pressure Visibility Wind Dir Wind Speed Gust Speed Precip Events Conditions
12:55 AM 48.2 °F - 48.2 °F 100% 29.72 in 10.0 mi South 6.9 mph - N/A   Scattered Clouds
1:55 AM 46.6 °F - 46.6 °F 100% 29.72 in 10.0 mi Calm Calm - N/A   Scattered Clouds
2:55 AM 46.8 °F - 46.8 °F 100% 29.75 in 10.0 mi West 11.5 mph - N/A   Mostly Cloudy
3:55 AM 43.9 °F 36.2 °F 41.9 °F 93% 29.80 in 10.0 mi NW 17.3 mph 23.0 mph N/A   Mostly Cloudy
4:55 AM 42.1 °F 35.2 °F 40.5 °F 94% 29.85 in 10.0 mi NW 12.7 mph 20.7 mph N/A   Partly Cloudy
5:06 AM 41.0 °F 32.5 °F 41.0 °F 100% 29.85 in 10.0 mi NW 17.3 mph 24.2 mph N/A   Mostly Cloudy
5:55 AM 40.5 °F 32.1 °F 39.9 °F 98% 29.91 in 10.0 mi NW 16.1 mph - N/A   Overcast
6:55 AM 39.7 °F 31.9 °F 39.4 °F 99% 29.94 in 10.0 mi NW 13.8 mph 23.0 mph N/A   Overcast
7:55 AM 39.4 °F 31.1 °F 38.5 °F 97% 29.96 in 10.0 mi NNW 15.0 mph 26.5 mph N/A   Overcast
8:55 AM 40.3 °F 33.0 °F 38.5 °F 93% 29.99 in 10.0 mi NNW 12.7 mph 23.0 mph N/A   Overcast
9:55 AM 40.6 °F 30.4 °F 37.0 °F 87% 30.01 in 10.0 mi NW 24.2 mph 31.1 mph N/A   Overcast
10:55 AM 42.8 °F 34.3 °F 36.3 °F 78% 30.04 in 10.0 mi NW 19.6 mph 31.1 mph N/A   Overcast
11:52 AM 44.6 °F 35.9 °F 37.4 °F 76% 30.03 in 10.0 mi NW 23.0 mph 31.1 mph N/A   Overcast
11:55 AM 44.6 °F 35.9 °F 36.3 °F 73% 30.03 in 10.0 mi NW 23.0 mph 31.1 mph N/A   Overcast
12:55 PM 45.1 °F 36.2 °F 35.2 °F 68% 30.03 in 10.0 mi NW 25.3 mph 34.5 mph N/A   Overcast
1:55 PM 44.4 °F 35.1 °F 32.7 °F 64% 30.04 in 10.0 mi NW 26.5 mph 34.5 mph N/A   Overcast
2:55 PM 44.4 °F 35.1 °F 31.1 °F 60% 30.07 in 10.0 mi NW 26.5 mph 35.7 mph 0.01 in   Overcast
3:55 PM 43.0 °F 32.7 °F 29.1 °F 58% 30.11 in 10.0 mi NW 28.8 mph 39.1 mph 0.01 in   Scattered Clouds
4:55 PM 40.8 °F 30.9 °F 27.1 °F 58% 30.15 in 10.0 mi NW 23.0 mph 38.0 mph N/A   Clear
5:55 PM 38.7 °F 30.5 °F 26.2 °F 61% 30.19 in 10.0 mi NW 13.8 mph 27.6 mph N/A   Clear
6:55 PM 39.2 °F 30.2 °F 25.3 °F 58% 30.20 in 10.0 mi NW 17.3 mph 23.0 mph N/A   Overcast
7:55 PM 39.7 °F 29.5 °F 24.6 °F 55% 30.22 in 10.0 mi NW 23.0 mph 40.3 mph N/A   Overcast
8:55 PM 38.8 °F 29.4 °F 25.0 °F 58% 30.23 in 10.0 mi NW 18.4 mph 29.9 mph N/A   Overcast
9:55 PM 38.7 °F 30.5 °F 26.1 °F 61% 30.22 in 10.0 mi NNW 13.8 mph 23.0 mph N/A   Overcast
10:55 PM 38.3 °F 28.7 °F 25.5 °F 60% 30.23 in 10.0 mi NW 18.4 mph 34.5 mph N/A   Overcast
11:55 PM 37.8 °F 29.4 °F 25.2 °F 60% 30.22 in 10.0 mi NNW 13.8 mph 23.0 mph N/A   Overcast